User: anonymous   Login
Location: Unspecified
(0.0000°N, 0.0000°E)
Time: 12:50:06
(UTC+00:00)
Language:

AO-Echo - Orbit

View from above orbital plane
View from above orbital plane
View from above satellite
View from above satellite

Ground track
Ground track

The orbit data is extracted from the following two-line orbital elements,

1 28375U 04025K   17326.51705385  .00000040  00000-0  25049-4 0  9997
2 28375  98.3696 256.7507 0082795 165.2652 195.0979 14.41864003704639
Epoch (UTC): 22 November 2017 12:24:33
Eccentricity: 0.0082795
inclination: 98.3696°
perigee height: 693 km
apogee height: 811 km
right ascension of ascending node: 256.7507°
argument of perigee: 165.2652°
revolutions per day: 14.41864003
mean anomaly at epoch: 195.0979°
orbit number at epoch: 70463

The dashed part of the orbit path shows where the satellite is in the earth's shadow,  

DLR